IK5WWP Weather Reports


Display with metric or nautical units.
time (UTC)temp
F
wind
direction
speed
MPH
gust
MPH
rain 1hr
in
rain 24hr
in
rain mn
in
humidity
%
barometer
mb
20260507215407 56 22 0.0 2.0 0.00 0.00 0.00 73 1012.3
20260507214507 56 22 0.0 2.0 0.00 0.00 0.00 73 1012.1
20260507213608 56 22 0.0 2.0 0.00 0.00 0.00 73 1012.3
20260507212708 56 22 0.0 2.0 0.00 0.00 0.00 73 1012.2
20260507211808 56 22 0.0 2.0 0.00 0.00 0.00 73 1012.0
20260507210907 56 22 0.0 2.0 0.00 0.00 0.00 73 1012.0
20260507210008 56 22 1.0 2.0 0.00 0.00 0.00 72 1012.2
20260507205107 56 0 0.0 0.0 0.00 0.00 0.00 74 1012.3
20260507204207 56 59 0.0 2.0 0.00 0.00 0.00 73 1012.1
20260507202407 56 40 0.0 2.0 0.00 0.00 0.00 72 1012.2
20260507201515 56 50 1.0 2.0 0.00 0.00 0.00 74 1012.1
20260507194807 60 23 0.0 2.0 0.00 0.00 0.00 63 1012.3
20260507193007 60 27 1.0 4.0 0.00 0.00 0.00 64 1012.1
20260507192119 60 28 0.0 2.0 0.00 0.00 0.00 65 1012.2
20260507191208 61 36 1.0 2.0 0.00 0.00 0.00 66 1012.1
20260507185407 61 36 1.0 2.0 0.00 0.00 0.00 66 1012.0
20260507183615 61 27 0.0 2.0 0.00 0.00 0.00 68 1011.7
20260507182707 61 23 1.0 2.0 0.00 0.00 0.00 70 1011.7
20260507181807 62 22 0.0 2.0 0.00 0.00 0.00 69 1011.8
20260507180908 62 22 0.0 2.0 0.00 0.00 0.00 69 1011.8
20260507180008 63 22 0.0 4.0 0.00 0.00 0.00 67 1011.7
20260507175108 65 23 1.0 2.0 0.00 0.00 0.00 63 1011.7
20260507173307 68 36 0.0 2.0 0.00 0.00 0.00 54 1011.8
20260507172408 68 42 1.0 2.0 0.00 0.00 0.00 53 1011.5
20260507170607 69 45 2.0 2.0 0.00 0.00 0.00 50 1011.2
20260507165708 69 41 1.0 4.0 0.00 0.00 0.00 49 1011.6
20260507164810 69 39 0.0 4.0 0.00 0.00 0.00 49 1011.5
20260507163908 69 52 1.0 4.0 0.00 0.00 0.00 51 1011.7
20260507163011 69 38 2.0 6.0 0.00 0.00 0.00 50 1011.7
20260507160308 69 52 2.0 4.0 0.00 0.00 0.00 49 1011.7
20260507155408 70 103 1.0 4.0 0.00 0.00 0.00 48 1011.7
20260507154509 70 178 3.0 4.0 0.00 0.00 0.00 49 1011.6
20260507153610 70 44 2.0 4.0 0.00 0.00 0.00 48 1011.8
20260507152709 70 76 1.0 4.0 0.00 0.00 0.00 48 1011.4
20260507151808 71 36 1.0 4.0 0.00 0.00 0.00 48 1011.6
20260507150910 71 39 2.0 4.0 0.00 0.00 0.00 48 1011.5
20260507150008 71 52 2.0 4.0 0.00 0.00 0.00 49 1011.9
20260507144208 71 49 2.0 6.0 0.00 0.00 0.00 48 1011.7
20260507143309 71 48 2.0 8.0 0.00 0.00 0.00 48 1012.0
20260507141508 71 36 2.0 6.0 0.00 0.00 0.00 48 1012.1
20260507135708 72 138 2.0 7.0 0.00 0.00 0.00 46 1012.2
20260507134808 74 156 2.0 9.0 0.00 0.00 0.00 45 1012.2
20260507133908 73 128 4.0 9.0 0.00 0.00 0.00 45 1012.0
20260507133010 73 34 2.0 7.0 0.00 0.00 0.00 46 1012.0
20260507131213 74 69 2.0 4.0 0.00 0.00 0.00 48 1012.3